Regional Weather Roundup
Issued by NWS

Home | Current Version | Previous Version | Graphics & Text | Print | Product List | Glossary On
Versions: 1 2 3 4 5 6 7 8 9 10 11 12 13 14 15 16 17 18 19 20 21 22 23 24 25 26 27 28 29 30 31 32 33 34 35 36 37 38 39 40 41 42 43 44 45 46 47 48 49 50
000
ASUS45 KABQ 040501
RWRNM
NEW MEXICO REGIONAL WEATHER ROUNDUP
NATIONAL WEATHER SERVICE ALBUQUERQUE NM
1100 PM MDT TUE MAY 03 2016

NOTE: "FAIR" MEANS FEW OR NO CLOUDS BELOW 12,000 FEET AGL WITH NO
       SIGNIFICANT WEATHER OR OBSTRUCTIONS TO VISION.

      THIS PRODUCT IS RELEASED AS TWO VERSIONS.  ONE VERSION NEAR
      THE TOP OF THE HOUR CONTAINING PRELIMINARY DATA FROM ALBUQUERQUE
      AND OTHER STATIONS.  A FINAL VERSION WITH ADDITIONAL DATA IS
      ISSUED ABOUT 10 MINUTES AFTER THE HOUR.

NMZ501-503-504-510>518-040600-
NORTHWEST PLATEAU/NORTHCENTRAL MOUNTAINS

CITY           SKY/WX    TMP DP  RH WIND       PRES   REMARKS
FARMINGTON     FAIR      54  36  50 CALM      30.21R
SANTA FE       FAIR      51  31  46 NE3       30.30R
TAOS           FAIR      45  28  53 E10       30.33R

$$
NMZ402-403-502-505>509-040600-
WESTCENTRAL MOUNTAINS/SOUTHWEST MOUNTAINS

CITY           SKY/WX    TMP DP  RH WIND       PRES   REMARKS
GALLUP         FAIR      49  30  48 CALM      30.28R
GRANTS         FAIR      46  34  62 CALM      30.30S
SILVER CITY      N/A     61  27  27 NE8       30.21R

$$
NMZ407-409-411-412-040600-
SOUTHERN DESERTS

CITY           SKY/WX    TMP DP  RH WIND       PRES   REMARKS
LORDSBURG      FAIR      64  28  25 SE7       30.11R
DEMING         FAIR      61  26  26 E7        30.14R
HOLLOMAN AFB   FAIR      64  33  30 N7        30.15R
ALAMOGORDO     FAIR      68  32  26 E10G21    30.16R
T OR C         FAIR      60  24  25 NE6       30.18R

$$
NMZ519>523-040600-
CENTRAL VALLEYS/CENTRAL HIGHLANDS

CITY           SKY/WX    TMP DP  RH WIND       PRES   REMARKS
ALBUQUERQUE    FAIR      61  30  31 E15       30.24R
DOUBLE EAGLE   FAIR      48  32  53 SE3       30.27S
CLINES CORNERS FAIR      46  29  51 E7        30.32R
BELEN          FAIR      59  29  32 SE8       30.24R
SOCORRO        NOT AVBL

$$
NMZ524>526-539-540-040600-
SOUTHCENTRAL MOUNTAINS

CITY           SKY/WX    TMP DP  RH WIND       PRES   REMARKS
RUIDOSO        NOT AVBL

$$
NMZ527>531-040600-
NORTHEAST HIGHLANDS/NORTHEAST PLAINS

CITY           SKY/WX    TMP DP  RH WIND       PRES   REMARKS
LAS VEGAS      FAIR      47  32  56 NE5       30.34R
RATON          FAIR      45  26  47 NW9       30.30R
CLAYTON        FAIR      46  31  55 NW6       30.23R

$$
NMZ532>537-040600-
EASTCENTRAL PLAINS

CITY           SKY/WX    TMP DP  RH WIND       PRES   REMARKS
TUCUMCARI      FAIR      48  32  53 VRB3      30.20R
CANNON AFB     FAIR      47  30  50 NE8       30.22R
CLOVIS AIRPORT FAIR      48  34  57 NE6       30.23R

$$
NMZ028-029-538-040600-
SOUTHEAST PLAINS

CITY           SKY/WX    TMP DP  RH WIND       PRES   REMARKS
ROSWELL        FAIR      59  31  34 CALM      30.18R
ARTESIA        FAIR      61  34  36 N3        30.19R
CARLSBAD       FAIR      63  35  35 CALM      30.16R
HOBBS            N/A     54  45  71 E7        30.20R


$$




USA.gov is the U.S. government's official web portal to all federal, state and local government web resources and services.